Date String (YYYY-MM-DD hh:mm:ss) UTC,Instrument flags,Ambient pressure (hPa),Sample flow (lpm),Bypass flow (lpm),Sample temperature (°C),Ambient temperature (°C),ASC tube jacket temperature (°C),LED temperature (°C),Box temperature (°C),Sample RH (%),Span deviation,Mass concentration (μg/m³),Mass concentration (μg/m³),Mass concentration (μg/m³)
DateTimeUTC,F1_M11,P_M11,Q1_M11,Q2_M11,T1_M11,T2_M11,T3_M11,T4_M11,T5_M11,U1_M11,ZSPAN_M11,X0_M11,X2_M11,X1_M11
2022-06-23 15:00:00,,0826.9,4.99,0.00,29.6,28.4,00.0,38.4,31.5,17.8,0000.0,0020.97,0005.49,0004.08
2022-06-23 15:01:00,,0826.9,5.00,0.00,29.6,28.5,00.0,38.4,31.5,18.5,0000.0,0020.69,0005.44,0004.06
2022-06-23 15:02:00,,0826.9,5.00,0.00,29.6,28.6,00.0,38.4,31.5,18.1,0000.0,0020.26,0005.37,0004.06
2022-06-23 15:03:00,,0826.9,5.00,0.00,29.6,28.6,00.0,38.4,31.6,17.8,0000.0,0019.62,0005.33,0004.06
2022-06-23 15:04:00,,0826.9,5.01,0.00,29.7,28.6,00.0,38.4,31.6,18.1,0000.0,0019.79,0005.37,0004.07
2022-06-23 15:05:00,,0827.0,5.00,0.00,29.7,28.1,00.0,38.4,31.5,18.3,0000.0,0019.48,0005.38,0004.09
2022-06-23 15:06:00,,0827.2,5.00,0.00,29.6,27.6,00.0,38.3,31.3,18.2,0000.0,0018.37,0005.34,0004.12
2022-06-23 15:07:00,,0826.8,4.99,0.00,29.5,27.5,00.0,38.3,31.3,18.0,0000.0,0017.19,0005.34,0004.14
2022-06-23 15:08:00,,0827.1,5.00,0.00,29.5,27.5,00.0,38.3,31.2,17.8,0000.0,0017.33,0005.33,0004.15
2022-06-23 15:09:00,,0826.9,5.00,0.00,29.5,27.6,00.0,38.3,31.2,18.0,0000.0,0017.34,0005.31,0004.16
2022-06-23 15:10:00,,0826.9,5.00,0.00,29.5,27.7,00.0,38.3,31.3,17.8,0000.0,0017.51,0005.30,0004.18
2022-06-23 15:11:00,,0826.9,5.00,0.00,29.5,27.9,00.0,38.3,31.3,17.5,0000.0,0016.76,0005.37,0004.20
2022-06-23 15:12:00,,0826.9,5.00,0.00,29.5,28.0,00.0,38.3,31.3,18.2,0000.0,0016.42,0005.41,0004.22
2022-06-23 15:13:00,,0826.9,5.00,0.00,29.5,28.1,00.0,38.3,31.4,18.2,0000.0,0016.99,0005.48,0004.23
2022-06-23 15:14:00,,0826.9,5.00,0.00,29.5,28.3,00.0,38.3,31.4,18.6,0000.0,0018.16,0005.55,0004.25
2022-06-23 15:15:00,,0826.9,5.00,0.00,29.5,28.4,00.0,38.3,31.4,19.3,0000.0,0017.68,0005.59,0004.26
2022-06-23 15:16:00,,0826.9,5.00,0.00,29.5,28.5,00.0,38.3,31.5,19.8,0000.0,0017.57,0005.58,0004.26
2022-06-23 15:17:00,,0827.0,5.00,0.00,29.6,28.5,00.0,38.3,31.5,19.4,0000.0,0017.92,0005.58,0004.26
2022-06-23 15:18:00,,0826.9,5.01,0.00,29.6,28.2,00.0,38.3,31.4,19.0,0000.0,0017.61,0005.60,0004.26
2022-06-23 15:19:00,,0826.9,5.00,0.00,29.5,27.5,00.0,38.2,31.2,19.2,0000.0,0016.50,0005.63,0004.27
2022-06-23 15:20:00,,0826.9,5.00,0.00,29.4,27.3,00.0,38.2,31.1,19.5,0000.0,0015.98,0005.69,0004.28
2022-06-23 15:21:00,,0826.9,4.99,0.00,29.4,27.3,00.0,38.2,31.1,19.2,0000.0,0014.98,0005.80,0004.29
2022-06-23 15:22:00,,0826.9,5.00,0.00,29.4,27.4,00.0,38.2,31.1,19.3,0000.0,0015.08,0005.80,0004.29
2022-06-23 15:23:00,,0826.9,5.00,0.00,29.4,27.6,00.0,38.2,31.2,19.2,0000.0,0015.71,0005.77,0004.30
2022-06-23 15:24:00,,0826.9,5.01,0.00,29.4,27.7,00.0,38.2,31.2,19.3,0000.0,0016.15,0005.76,0004.31
2022-06-23 15:25:00,,0826.9,5.00,0.00,29.4,27.9,00.0,38.2,31.2,19.2,0000.0,0015.41,0005.78,0004.32
2022-06-23 15:26:00,,0826.9,5.00,0.00,29.4,28.0,00.0,38.2,31.3,19.2,0000.0,0016.13,0005.83,0004.32
2022-06-23 15:27:00,,0826.9,5.00,0.00,29.4,28.1,00.0,38.2,31.3,19.7,0000.0,0015.65,0005.85,0004.33
2022-06-23 15:28:00,,0826.9,5.00,0.00,29.4,28.2,00.0,38.2,31.3,19.1,0000.0,0015.41,0005.86,0004.34
2022-06-23 15:29:00,,0826.9,4.99,0.00,29.4,28.4,00.0,38.2,31.4,19.7,0000.0,0016.21,0005.94,0004.35
2022-06-23 15:30:00,,0826.9,5.00,0.00,29.5,28.5,00.0,38.2,31.4,19.4,0000.0,0016.54,0005.99,0004.37
2022-06-23 15:31:00,,0827.1,5.01,0.00,29.5,28.3,00.0,38.2,31.4,19.0,0000.0,0016.62,0006.06,0004.38
2022-06-23 15:32:00,,0827.0,5.00,0.00,29.5,27.6,00.0,38.2,31.2,18.9,0000.0,0016.57,0006.03,0004.39
2022-06-23 15:33:00,,0826.9,5.00,0.00,29.4,27.3,00.0,38.1,31.1,18.7,0000.0,0017.57,0006.05,0004.40
2022-06-23 15:34:00,,0826.9,5.01,0.00,29.4,27.3,00.0,38.1,31.1,18.2,0000.0,0017.80,0006.06,0004.39
2022-06-23 15:35:00,,0826.9,4.99,0.00,29.3,27.4,00.0,38.1,31.1,17.7,0000.0,0017.36,0006.06,0004.38
2022-06-23 15:36:00,,0826.9,5.00,0.00,29.3,27.5,00.0,38.1,31.1,18.3,0000.0,0017.10,0006.03,0004.37
2022-06-23 15:37:00,,0826.8,5.00,0.00,29.3,27.6,00.0,38.1,31.1,17.8,0000.0,0017.07,0005.87,0004.35
2022-06-23 15:38:00,,0826.8,5.00,0.00,29.3,27.8,00.0,38.1,31.2,17.7,0000.0,0017.16,0005.81,0004.32
2022-06-23 15:39:00,,0826.8,5.00,0.00,29.3,27.9,00.0,38.1,31.2,17.2,0000.0,0017.10,0005.78,0004.29
2022-06-23 15:40:00,,0826.8,4.99,0.00,29.3,28.1,00.0,38.1,31.2,17.0,0000.0,0017.01,0005.65,0004.25
2022-06-23 15:41:00,,0826.8,5.00,0.00,29.4,28.2,00.0,38.1,31.3,17.7,0000.0,0016.62,0005.59,0004.22
2022-06-23 15:42:00,,0826.8,5.00,0.00,29.4,28.3,00.0,38.1,31.3,16.0,0000.0,0016.56,0005.45,0004.18
2022-06-23 15:43:00,,0826.8,5.01,0.00,29.4,28.4,00.0,38.1,31.4,15.9,0000.0,0017.74,0005.38,0004.14
2022-06-23 15:44:00,,0826.7,5.00,0.00,29.4,28.2,00.0,38.1,31.3,15.8,0000.0,0016.77,0005.33,0004.11
2022-06-23 15:45:00,,0826.7,5.00,0.00,29.4,27.5,00.0,38.1,31.2,16.3,0000.0,0015.57,0005.28,0004.08
2022-06-23 15:46:00,,0826.7,5.00,0.00,29.3,27.3,00.0,38.0,31.1,16.5,0000.0,0015.49,0005.26,0004.07
2022-06-23 15:47:00,,0826.7,5.00,0.00,29.3,27.3,00.0,38.0,31.1,17.1,0000.0,0015.58,0005.20,0004.06
2022-06-23 15:48:00,,0826.7,5.00,0.00,29.3,27.4,00.0,38.0,31.1,17.0,0000.0,0014.92,0005.21,0004.05
2022-06-23 15:49:00,,0826.7,5.01,0.00,29.3,27.5,00.0,38.0,31.1,16.9,0000.0,0015.21,0005.15,0004.05
2022-06-23 15:50:00,,0826.7,5.01,0.00,29.3,27.7,00.0,38.0,31.1,17.1,0000.0,0015.65,0005.15,0004.03
2022-06-23 15:51:00,,0826.7,4.99,0.00,29.3,27.8,00.0,38.1,31.1,16.6,0000.0,0014.96,0005.16,0004.02
2022-06-23 15:52:00,,0826.7,4.99,0.00,29.3,28.0,00.0,38.1,31.2,17.0,0000.0,0015.03,0005.10,0004.00
2022-06-23 15:53:00,,0826.7,5.01,0.00,29.3,28.1,00.0,38.1,31.2,17.1,0000.0,0015.00,0005.09,0004.00
2022-06-23 15:54:00,,0826.7,5.01,0.00,29.3,28.2,00.0,38.1,31.3,17.3,0000.0,0013.95,0005.10,0004.01
2022-06-23 15:55:00,,0826.7,5.00,0.00,29.4,28.3,00.0,38.1,31.3,17.1,0000.0,0014.28,0005.06,0004.01
2022-06-23 15:56:00,,0826.7,4.99,0.00,29.4,28.4,00.0,38.1,31.3,17.0,0000.0,0014.68,0005.08,0004.01
2022-06-23 15:57:00,,0826.7,5.00,0.00,29.4,28.0,00.0,38.1,31.3,16.9,0000.0,0015.41,0005.09,0004.01
2022-06-23 15:58:00,,0826.7,5.01,0.00,29.3,27.4,00.0,38.0,31.1,16.5,0000.0,0016.28,0005.09,0003.99
2022-06-23 15:59:00,,0826.7,5.02,0.00,29.3,27.2,00.0,38.0,31.0,16.2,0000.0,0016.13,0005.11,0003.98
